• In Deutschland
  • Länderverzeichnis
  • Für 7 Tage
  • Wassertemperatur
  • Satellitenkarten
  • Wetterkarte
  • Widgets
  • user-avatar
    Anmelden

    Stündliche Wetter Rastatt

    Heute, 19 September, Mittwoch

    Zeit Temperatur Niederschläge Wind Luftdruck Luftfeuchtigkeit
    00:00 +21°C° 0.2 mm 1 m/S 753 mmHg 77%
    01:00 +20°C° 0.2 mm 1 m/S 753 mmHg 78%
    02:00 +20°C° 0 mm 1 m/S 753 mmHg 78%
    03:00 +20°C° 0 mm 1 m/S 753 mmHg 79%
    04:00 +19°C° 0 mm 1 m/S 753 mmHg 80%
    05:00 +19°C° 0.1 mm 1 m/S 754 mmHg 81%
    06:00 +19°C° 0.1 mm 1 m/S 754 mmHg 81%
    07:00 +19°C° 0.1 mm 1 m/S 754 mmHg 82%
    08:00 +22°C° 0 mm 1 m/S 754 mmHg 74%
    09:00 +24°C° 0 mm 2 m/S 754 mmHg 67%
    10:00 +26°C° 0 mm 2 m/S 755 mmHg 59%
    11:00 +27°C° 0 mm 2 m/S 754 mmHg 55%
    12:00 +29°C° 0 mm 2 m/S 754 mmHg 50%
    13:00 +30°C° 0 mm 2 m/S 754 mmHg 46%
    14:00 +30°C° 0 mm 2 m/S 754 mmHg 46%
    15:00 +30°C° 0 mm 2 m/S 754 mmHg 46%
    16:00 +30°C° 0 mm 2 m/S 754 mmHg 47%
    17:00 +28°C° 0 mm 2 m/S 754 mmHg 54%
    18:00 +26°C° 0 mm 1 m/S 754 mmHg 62%
    19:00 +24°C° 0 mm 1 m/S 754 mmHg 69%
    20:00 +23°C° 0 mm 1 m/S 754 mmHg 72%
    21:00 +22°C° 0 mm 1 m/S 755 mmHg 74%
    22:00 +22°C° 0 mm 1 m/S 755 mmHg 77%
    23:00 +21°C° 0 mm 1 m/S 755 mmHg 78%

    Morgen, 20 September, Donnerstag

    Zeit Temperatur Niederschläge Wind Luftdruck Luftfeuchtigkeit
    00:00 +21°C° 0 mm 1 m/S 755 mmHg 80%
    01:00 +21°C° 0 mm 1 m/S 755 mmHg 81%
    02:00 +20°C° 0 mm 1 m/S 755 mmHg 82%
    03:00 +20°C° 0 mm 1 m/S 755 mmHg 84%
    04:00 +19°C° 0 mm 1 m/S 755 mmHg 85%
    05:00 +19°C° 0 mm 1 m/S 755 mmHg 85%
    06:00 +19°C° 0 mm 1 m/S 755 mmHg 85%
    07:00 +19°C° 0 mm 1 m/S 755 mmHg 84%
    08:00 +22°C° 0 mm 1 m/S 755 mmHg 76%
    09:00 +24°C° 0 mm 1 m/S 755 mmHg 68%
    10:00 +26°C° 0 mm 1 m/S 755 mmHg 59%
    11:00 +27°C° 0 mm 1 m/S 755 mmHg 55%
    12:00 +28°C° 0 mm 1 m/S 754 mmHg 51%
    13:00 +29°C° 0 mm 2 m/S 754 mmHg 46%
    14:00 +29°C° 0 mm 2 m/S 753 mmHg 45%
    15:00 +29°C° 0 mm 1 m/S 753 mmHg 44%
    16:00 +29°C° 0 mm 1 m/S 752 mmHg 43%
    17:00 +27°C° 0 mm 1 m/S 752 mmHg 50%
    18:00 +25°C° 0 mm 1 m/S 752 mmHg 57%
    19:00 +21°C° 0 mm 0 m/S 752 mmHg 63%
    20:00 +22°C° 0 mm 1 m/S 752 mmHg 66%
    21:00 +22°C° 0 mm 1 m/S 751 mmHg 68%
    22:00 +21°C° 0 mm 1 m/S 751 mmHg 70%
    23:00 +21°C° 0 mm 1 m/S 751 mmHg 72%

    übermorgen, 21 September, Freitag

    Zeit Temperatur Niederschläge Wind Luftdruck Luftfeuchtigkeit
    00:00 +20°C° 0 mm 1 m/S 751 mmHg 74%
    01:00 +19°C° 0 mm 2 m/S 750 mmHg 76%
    02:00 +19°C° 0 mm 2 m/S 750 mmHg 76%
    03:00 +18°C° 0 mm 2 m/S 750 mmHg 76%
    04:00 +18°C° 0 mm 2 m/S 749 mmHg 77%
    05:00 +18°C° 0 mm 2 m/S 749 mmHg 75%
    06:00 +19°C° 0 mm 2 m/S 749 mmHg 74%
    07:00 +19°C° 0 mm 3 m/S 749 mmHg 72%
    08:00 +21°C° 0 mm 4 m/S 748 mmHg 65%
    09:00 +23°C° 0 mm 5 m/S 748 mmHg 58%
    10:00 +27°C° 0 mm 6 m/S 748 mmHg 51%
    11:00 +27°C° 0 mm 6 m/S 747 mmHg 49%
    12:00 +28°C° 0 mm 7 m/S 747 mmHg 46%
    13:00 +29°C° 0 mm 7 m/S 746 mmHg 44%
    14:00 +28°C° 0.1 mm 8 m/S 746 mmHg 46%
    15:00 +27°C° 0.1 mm 9 m/S 747 mmHg 48%
    16:00 +27°C° 0.1 mm 10 m/S 747 mmHg 51%
    17:00 +22°C° 0.6 mm 8 m/S 748 mmHg 60%
    18:00 +17°C° 0.6 mm 6 m/S 749 mmHg 69%
    19:00 +13°C° 0.6 mm 4 m/S 750 mmHg 78%
    20:00 +12°C° 0.1 mm 4 m/S 752 mmHg 80%
    21:00 +12°C° 0.1 mm 4 m/S 753 mmHg 82%
    22:00 +11°C° 0.1 mm 4 m/S 754 mmHg 84%
    23:00 +11°C° 0 mm 4 m/S 755 mmHg 85%

    22 September, Samstag

    Zeit Temperatur Niederschläge Wind Luftdruck Luftfeuchtigkeit
    00:00 +10°C° 0 mm 3 m/S 756 mmHg 85%
    01:00 +10°C° 0 mm 3 m/S 756 mmHg 85%
    02:00 +10°C° 0 mm 3 m/S 757 mmHg 86%
    03:00 +9°C° 0 mm 3 m/S 757 mmHg 87%
    04:00 +9°C° 0 mm 2 m/S 758 mmHg 88%
    05:00 +9°C° 0 mm 2 m/S 758 mmHg 88%
    06:00 +9°C° 0 mm 2 m/S 758 mmHg 88%
    07:00 +8°C° 0 mm 2 m/S 759 mmHg 87%
    08:00 +10°C° 0 mm 2 m/S 759 mmHg 77%
    09:00 +12°C° 0 mm 3 m/S 759 mmHg 67%
    10:00 +14°C° 0 mm 3 m/S 759 mmHg 57%
    11:00 +16°C° 0 mm 3 m/S 758 mmHg 52%
    12:00 +17°C° 0 mm 3 m/S 758 mmHg 47%
    13:00 +18°C° 0 mm 3 m/S 757 mmHg 41%
    14:00 +18°C° 0 mm 3 m/S 757 mmHg 41%
    15:00 +18°C° 0 mm 3 m/S 757 mmHg 41%
    16:00 +19°C° 0 mm 3 m/S 757 mmHg 40%
    17:00 +17°C° 0 mm 3 m/S 757 mmHg 47%
    18:00 +15°C° 0 mm 2 m/S 757 mmHg 53%
    19:00 +13°C° 0 mm 1 m/S 757 mmHg 59%
    20:00 +13°C° 0 mm 1 m/S 757 mmHg 61%
    21:00 +12°C° 0 mm 1 m/S 757 mmHg 63%
    22:00 +11°C° 0 mm 1 m/S 757 mmHg 65%
    23:00 +12°C° 0 mm 1 m/S 757 mmHg 64%

    23 September, Sonntag

    Zeit Temperatur Niederschläge Wind Luftdruck Luftfeuchtigkeit
    00:00 +12°C° 0 mm 1 m/S 756 mmHg 63%
    01:00 +12°C° 0 mm 1 m/S 756 mmHg 62%
    02:00 +12°C° 0.1 mm 1 m/S 755 mmHg 64%
    03:00 +12°C° 0.1 mm 1 m/S 754 mmHg 66%
    04:00 +12°C° 0.1 mm 2 m/S 754 mmHg 69%
    05:00 +12°C° 0 mm 2 m/S 753 mmHg 68%
    06:00 +12°C° 0 mm 2 m/S 752 mmHg 68%
    07:00 +12°C° 0 mm 2 m/S 751 mmHg 67%
    08:00 +13°C° 0 mm 3 m/S 750 mmHg 60%
    09:00 +15°C° 0 mm 4 m/S 749 mmHg 53%
    10:00 +17°C° 0 mm 5 m/S 748 mmHg 46%
    11:00 +20°C° 0 mm 6 m/S 747 mmHg 44%
    12:00 +22°C° 0 mm 7 m/S 746 mmHg 43%
    13:00 +24°C° 0 mm 8 m/S 744 mmHg 41%
    14:00 +26°C° 0 mm 8 m/S 743 mmHg 42%
    15:00 +27°C° 0 mm 8 m/S 741 mmHg 43%
    16:00 +28°C° 0 mm 9 m/S 739 mmHg 44%
    17:00 +23°C° 1.5 mm 9 m/S 739 mmHg 55%
    18:00 +19°C° 1.5 mm 10 m/S 739 mmHg 66%
    19:00 +16°C° 1.5 mm 10 m/S 739 mmHg 77%
    20:00 +14°C° 0.5 mm 11 m/S 740 mmHg 73%
    21:00 +13°C° 0.5 mm 11 m/S 741 mmHg 68%
    22:00 +10°C° 0.5 mm 12 m/S 742 mmHg 63%
    23:00 +10°C° 0.3 mm 12 m/S 743 mmHg 67%

    24 September, Montag

    Zeit Temperatur Niederschläge Wind Luftdruck Luftfeuchtigkeit
    00:00 +10°C° 0.3 mm 13 m/S 743 mmHg 70%
    01:00 +9°C° 0.3 mm 13 m/S 744 mmHg 73%
    02:00 +9°C° 1.2 mm 13 m/S 745 mmHg 76%
    03:00 +8°C° 1.2 mm 13 m/S 746 mmHg 79%
    04:00 +8°C° 1.2 mm 12 m/S 746 mmHg 82%
    05:00 +8°C° 1 mm 12 m/S 747 mmHg 83%
    06:00 +8°C° 1 mm 11 m/S 748 mmHg 84%
    07:00 +8°C° 1 mm 10 m/S 750 mmHg 85%
    08:00 +8°C° 0.7 mm 9 m/S 751 mmHg 85%
    09:00 +8°C° 0.7 mm 9 m/S 752 mmHg 84%
    10:00 +8°C° 0.7 mm 9 m/S 753 mmHg 83%
    11:00 +10°C° 0.5 mm 8 m/S 753 mmHg 79%
    12:00 +11°C° 0.5 mm 8 m/S 754 mmHg 75%
    13:00 +11°C° 0.5 mm 8 m/S 755 mmHg 71%
    14:00 +11°C° 0.4 mm 7 m/S 755 mmHg 69%
    15:00 +11°C° 0.4 mm 7 m/S 756 mmHg 68%
    16:00 +13°C° 0.4 mm 6 m/S 756 mmHg 66%
    17:00 +11°C° 0.2 mm 6 m/S 757 mmHg 70%
    18:00 +10°C° 0.2 mm 5 m/S 757 mmHg 73%
    19:00 +10°C° 0.2 mm 4 m/S 758 mmHg 76%
    20:00 +10°C° 0.1 mm 4 m/S 759 mmHg 77%
    21:00 +8°C° 0.1 mm 4 m/S 759 mmHg 79%
    22:00 +8°C° 0.1 mm 4 m/S 760 mmHg 80%
    23:00 +8°C° 0 mm 3 m/S 760 mmHg 82%
    Mehr zeigen